[[{"header":{"parameterUnit":"m.s-1","parameterCategory":1,"la1":30.2991,"la2":30.254,"lo1":-89.0895,"lo2":-89.0444,"dy":0.0017,"dx":0.0017,"nx":28,"ny":28,"refTime":"2025-11-22T03:00:00:Z","depth":0,"parameterNumber":2,"parameterNumberName":"U-component_of_WINDS"},"data":[0,0,0,0,0,0,0,0,0,0,0,0,0,0,0,0,0,0,0,0,0,0,0,0,0,0,0,0,0,0,0,0,0,0,0,0,0,0,0,0,0,0,0,0,0,0,0,0,0,0,0,0,0,0,0,0,0,0,0.782,0.782,0,0.79,0.79,0.7901,0.7898,0.7897,0.7896,0.7895,0.7979,0.7983,0.7986,0,0,0,0,0,0,0,0,0,0,0,0,0,0.7669,0.7671,0.7819,0.782,0.7821,0.7899,0.7901,0.7902,0.7898,0.7897,0.7895,0.7894,0.7978,0.7982,0.7986,0,0,0,0,0,0,0,0,0,0,0,0,0,0.774,0.7672,0.7819,0.7829,0.7831,0.7899,0.7901,0.7902,0.7899,0.7897,0.7895,0.7894,0.7977,0.7982,0.7987,0.8052,0,0,0.8002,0.8004,0,0,0,0,0,0,0,0,0.7736,0.7746,0.7827,0.7829,0.7831,0.7887,0.7878,0.7952,0.7899,0.7873,0.7895,0.7893,0.795,0.7957,0.7976,0.8056,0.8059,0.8002,0.8005,0.8008,0.8009,0,0,0,0,0,0,0,0.7731,0.7742,0.7851,0.7828,0.783,0.7831,0.7839,0.7892,0.792,0.7875,0.7875,0.7884,0.7951,0.7971,0.7978,0.806,0.8002,0.8007,0.801,0.8012,0.8201,0.8203,0,0,0,0,0,0,0.7723,0.7738,0.7849,0.7854,0.7778,0.7835,0.7844,0.7871,0.792,0.7925,0.7886,0.7884,0.7964,0.7972,0.7981,0.8062,0.8008,0.8012,0.8015,0.8199,0.8202,0.8204,0,0,0,0,0,0,0.772,0.7733,0.7845,0.7796,0.781,0.784,0.7869,0.7873,0.7893,0.7928,0.7933,0.7901,0.7963,0.7974,0.8035,0.8065,0.8014,0.8019,0.8197,0.82,0.8203,0.8224,0,0,0,0,0,0,0.7716,0.7732,0.7756,0.7796,0.7813,0.7896,0.7871,0.7876,0.7902,0.79,0.7943,0.7949,0.7962,0.8027,0.804,0.8071,0.8023,0.8194,0.8198,0.8202,0.8221,0.8228,0.8233,0,0,0,0,0,0.771,0.7758,0.7757,0.777,0.7843,0.7898,0.7907,0.7921,0.7904,0.7929,0.7952,0.7948,0.806,0.8034,0.8047,0.8081,0.8192,0.8197,0.8201,0.8218,0.8226,0.8233,0,0,0,0,0,0,0.772,0.7764,0.7762,0.7824,0.7858,0.7897,0.7929,0.7929,0.7968,0.7964,0.798,0.799,0.8052,0.8072,0.8042,0.8148,0.8124,0.8132,0.8132,0.814,0.8146,0.814,0.8027,0,0,0,0,0,0.773,0.777,0.7806,0.7857,0.7874,0.7899,0.7923,0.7931,0.7966,0.798,0.8007,0.8042,0.8086,0.8114,0.8156,0.8224,0.8235,0.8254,0.8261,0.8265,0.8272,0.8313,0.8323,0.8219,0.8219,0.8219,0,0,0.7749,0.7778,0.7802,0.786,0.7886,0.793,0.791,0.7956,0.7988,0.7987,0.8046,0.8068,0.8109,0.8174,0.8204,0.8193,0.8303,0.8271,0.8275,0.8279,0.8319,0.8328,0.8337,0.8222,0.8221,0.8221,0,0,0.7808,0.7832,0.7879,0.7907,0.7947,0.7964,0.7975,0.8016,0.803,0.8089,0.809,0.8131,0.8204,0.8234,0.8259,0.8333,0.8332,0.8346,0.8379,0.8418,0.8426,0.8434,0.8462,0.8472,0.8352,0.8352,0.8352,0,0.7827,0.789,0.7903,0.795,0.7977,0.7978,0.8027,0.8053,0.8106,0.8125,0.8112,0.8207,0.8234,0.8308,0.8327,0.8346,0.8362,0.8341,0.8424,0.8431,0.8439,0.8466,0.8476,0.8354,0.8354,0.8354,0.8354,0,0.7914,0.7958,0.7991,0.8042,0.8073,0.812,0.8143,0.8172,0.8178,0.8197,0.826,0.8293,0.8343,0.8361,0.8367,0.8437,0.843,0.842,0.8396,0.845,0.8476,0.8486,0.8356,0.8356,0.8355,0.8355,0,0,0.7978,0.8038,0.805,0.8074,0.8121,0.8156,0.8205,0.8254,0.828,0.8317,0.836,0.8425,0.8417,0.8446,0.8455,0.849,0.8549,0.8477,0.8478,0.849,0.8632,0.8639,0.8651,0.8549,0.8551,0.8553,0.8629,0,0.8042,0.8128,0.8143,0.8219,0.8262,0.8265,0.8309,0.8343,0.8363,0.8404,0.8426,0.8472,0.8457,0.8475,0.8509,0.8535,0.8578,0.8529,0.8591,0.8593,0.8581,0.8664,0.8671,0.8741,0.8639,0.864,0.8642,0,0.8128,0.8167,0.8248,0.8291,0.831,0.8348,0.8396,0.8434,0.8474,0.8487,0.852,0.8527,0.8581,0.8555,0.8631,0.8597,0.8624,0.8641,0.8644,0.8651,0.8621,0.8674,0.8763,0.8774,0.8657,0.8656,0.8655,0,0.8169,0.8243,0.8301,0.8321,0.8373,0.8401,0.8424,0.8462,0.8492,0.8534,0.8554,0.8602,0.8628,0.8667,0.8687,0.8666,0.8763,0.8738,0.8776,0.8776,0.8796,0.8795,0.8893,0.8812,0.8812,0.8812,0.8812,0,0.8239,0.8288,0.832,0.8356,0.8413,0.8431,0.8487,0.851,0.8545,0.8587,0.8594,0.8633,0.8658,0.8702,0.8719,0.8781,0.8792,0.8805,0.8809,0.8805,0.8804,0.8823,0.8819,0.8815,0.8814,0.8813,0.8813,0,0.8294,0.8317,0.8381,0.8426,0.8438,0.8478,0.8517,0.8554,0.8575,0.8628,0.8642,0.8675,0.8728,0.8752,0.8817,0.8829,0.89,0.89,0.8886,0.8887,0.8925,0.8921,0.9039,0.9056,0.8963,0.8964,0.8965,0,0.8338,0.8376,0.8425,0.8454,0.8477,0.8523,0.8553,0.8574,0.8606,0.8657,0.8688,0.8741,0.8784,0.8868,0.8899,0.895,0.8952,0.899,0.896,0.8956,0.8955,0.8953,0.8958,0.8995,0.8996,0.8997,0.8998,0,0.8413,0.8423,0.8466,0.8514,0.855,0.8589,0.8628,0.8651,0.8678,0.8714,0.8768,0.8802,0.8869,0.8923,0.8976,0.9002,0.9006,0.9007,0.9019,0.9015,0.9006,0.9013,0.8902,0.9004,0.9004,0.9003,0.9003,0.9002,0.8465,0.85,0.8541,0.8589,0.8621,0.8657,0.8694,0.872,0.8765,0.8821,0.8831,0.8889,0.8933,0.9005,0.9033,0.908,0.9071,0.9088,0.9092,0.9096,0.9099,0.8998,0.909,0.909,0.9089,0.9089,0.9089,0,0.8542,0.8569,0.8613,0.8667,0.8706,0.8706,0.8749,0.8783,0.8833,0.8873,0.8916,0.898,0.9032,0.9068,0.9122,0.9154,0.9157,0.9167,0.9165,0.9172,0.9103,0.9088,0.9164,0.9164,0.9164,0.9164,0.9164,0.9164,0.8586,0.8646,0.8662,0.874,0.8767,0.8823,0.8848,0.8883,0.8915,0.8986,0.9029,0.9053,0.9092,0.9149,0.9199,0.9208,0.9229,0.924,0.9249,0.9184,0.9176,0.9169,0.9155,0.9244,0.9244,0.9314,0.9315,0.9315]},{"header":{"parameterUnit":"m.s-1","parameterCategory":1,"la1":30.2991,"la2":30.254,"lo1":-89.0895,"lo2":-89.0444,"dy":0.0017,"dx":0.0017,"nx":28,"ny":28,"refTime":"2025-11-22T03:00:00:Z","depth":0,"parameterNumber":3,"parameterNumberName":"V-component_of_WINDS"},"data":[0,0,0,0,0,0,0,0,0,0,0,0,0,0,0,0,0,0,0,0,0,0,0,0,0,0,0,0,0,0,0,0,0,0,0,0,0,0,0,0,0,0,0,0,0,0,0,0,0,0,0,0,0,0,0,0,0,0,-2.2838,-2.2838,0,-2.2803,-2.2803,-2.2802,-2.2829,-2.2831,-2.2832,-2.2833,-2.2791,-2.2789,-2.2787,0,0,0,0,0,0,0,0,0,0,0,0,0,-2.2926,-2.2924,-2.2839,-2.2838,-2.2838,-2.2803,-2.2803,-2.2802,-2.2829,-2.2831,-2.2832,-2.2833,-2.2792,-2.2789,-2.2787,0,0,0,0,0,0,0,0,0,0,0,0,0,-2.2889,-2.2924,-2.2839,-2.2847,-2.2848,-2.2803,-2.2803,-2.2802,-2.2829,-2.2831,-2.2832,-2.2834,-2.2793,-2.279,-2.2786,-2.273,0,0,-2.2776,-2.2775,0,0,0,0,0,0,0,0,-2.2891,-2.2886,-2.2846,-2.2846,-2.2847,-2.2823,-2.2818,-2.2778,-2.2828,-2.2836,-2.2833,-2.2835,-2.28,-2.2796,-2.2785,-2.2728,-2.2726,-2.2776,-2.2774,-2.2772,-2.2771,0,0,0,0,0,0,0,-2.2894,-2.2887,-2.2824,-2.2846,-2.2846,-2.2852,-2.2848,-2.2811,-2.2808,-2.2835,-2.2837,-2.2833,-2.28,-2.2788,-2.2784,-2.2726,-2.2776,-2.2773,-2.2771,-2.277,-2.2621,-2.2619,0,0,0,0,0,0,-2.2896,-2.2889,-2.2825,-2.2823,-2.2874,-2.2849,-2.2845,-2.2828,-2.2809,-2.2807,-2.2831,-2.2834,-2.2793,-2.2788,-2.2783,-2.2716,-2.2772,-2.2769,-2.2767,-2.2623,-2.2621,-2.2619,0,0,0,0,0,0,-2.2898,-2.289,-2.2827,-2.2857,-2.2849,-2.2845,-2.2827,-2.2827,-2.2815,-2.2806,-2.2805,-2.282,-2.2794,-2.2788,-2.2744,-2.2715,-2.2768,-2.2765,-2.2625,-2.2622,-2.262,-2.2581,0,0,0,0,0,0,-2.29,-2.289,-2.287,-2.2856,-2.2848,-2.2789,-2.2825,-2.2825,-2.281,-2.2813,-2.2795,-2.2793,-2.2795,-2.2748,-2.274,-2.2711,-2.2762,-2.2628,-2.2624,-2.2621,-2.2585,-2.2577,-2.2571,0,0,0,0,0,-2.2903,-2.2859,-2.2868,-2.2861,-2.2822,-2.2787,-2.2782,-2.2787,-2.2807,-2.2786,-2.278,-2.2794,-2.272,-2.2744,-2.2735,-2.2704,-2.263,-2.2625,-2.2621,-2.2588,-2.2579,-2.2571,0,0,0,0,0,0,-2.2866,-2.2857,-2.2868,-2.2818,-2.2803,-2.2792,-2.2765,-2.2776,-2.2754,-2.2758,-2.2763,-2.2759,-2.2713,-2.2704,-2.2731,-2.2649,-2.2678,-2.2672,-2.2656,-2.2647,-2.264,-2.2642,-2.2759,0,0,0,0,0,-2.2853,-2.2827,-2.282,-2.2776,-2.2769,-2.2768,-2.2753,-2.2759,-2.2743,-2.2736,-2.2727,-2.271,-2.2683,-2.2665,-2.264,-2.2585,-2.2581,-2.256,-2.2553,-2.2547,-2.254,-2.2511,-2.2502,-2.2604,-2.2604,-2.2604,0,0,-2.2824,-2.2816,-2.2798,-2.2769,-2.2758,-2.273,-2.2762,-2.2731,-2.271,-2.2731,-2.2689,-2.2682,-2.2663,-2.2614,-2.2591,-2.2605,-2.2512,-2.2541,-2.2537,-2.2533,-2.2506,-2.2496,-2.2487,-2.2601,-2.2602,-2.2602,0,0,-2.2756,-2.2748,-2.2711,-2.2701,-2.2685,-2.2686,-2.2677,-2.2664,-2.2661,-2.262,-2.2635,-2.261,-2.2563,-2.2549,-2.2536,-2.2467,-2.2478,-2.2458,-2.242,-2.2392,-2.2384,-2.2377,-2.2351,-2.2342,-2.2453,-2.2452,-2.2452,0,-2.2721,-2.2681,-2.269,-2.2658,-2.2645,-2.2666,-2.2628,-2.2617,-2.2593,-2.2582,-2.2599,-2.2543,-2.2531,-2.2479,-2.2463,-2.2452,-2.2441,-2.2459,-2.2385,-2.2377,-2.2371,-2.2347,-2.2337,-2.245,-2.245,-2.2451,-2.2451,0,-2.2639,-2.2611,-2.2583,-2.2562,-2.2545,-2.251,-2.2514,-2.2496,-2.2504,-2.2502,-2.246,-2.2448,-2.2421,-2.2409,-2.2415,-2.2358,-2.2367,-2.2384,-2.2413,-2.2358,-2.2336,-2.2327,-2.2447,-2.2448,-2.2448,-2.2449,0,0,-2.2544,-2.2531,-2.252,-2.2512,-2.2497,-2.2475,-2.2442,-2.2418,-2.2402,-2.2385,-2.2357,-2.2318,-2.2335,-2.232,-2.2325,-2.23,-2.2246,-2.232,-2.232,-2.2306,-2.2182,-2.2168,-2.2157,-2.2255,-2.2253,-2.2252,-2.2183,0,-2.2475,-2.2418,-2.2427,-2.2372,-2.2346,-2.2366,-2.2337,-2.2325,-2.2323,-2.23,-2.2298,-2.227,-2.2294,-2.2286,-2.2262,-2.2257,-2.2221,-2.2263,-2.2226,-2.2225,-2.2229,-2.2146,-2.213,-2.2066,-2.2174,-2.2173,-2.2172,0,-2.2386,-2.2369,-2.2312,-2.2303,-2.2293,-2.2266,-2.2246,-2.2224,-2.2211,-2.2211,-2.2196,-2.2206,-2.2172,-2.2204,-2.2156,-2.2185,-2.2171,-2.2167,-2.2164,-2.2159,-2.2194,-2.2137,-2.2046,-2.2036,-2.2158,-2.2159,-2.216,0,-2.2322,-2.2284,-2.2246,-2.2238,-2.2227,-2.2208,-2.2202,-2.2191,-2.2176,-2.2158,-2.2149,-2.2126,-2.2113,-2.2095,-2.2099,-2.2121,-2.205,-2.2082,-2.2048,-2.2048,-2.203,-2.2031,-2.1934,-2.2024,-2.2024,-2.2025,-2.2025,0,-2.2243,-2.2206,-2.2217,-2.2192,-2.2153,-2.2164,-2.2124,-2.212,-2.2111,-2.2086,-2.2102,-2.2078,-2.2085,-2.2061,-2.2064,-2.2025,-2.2019,-2.2017,-2.2018,-2.2015,-2.2015,-2.2004,-2.2008,-2.2022,-2.2023,-2.2023,-2.2024,0,-2.2162,-2.2168,-2.2127,-2.2122,-2.2119,-2.209,-2.2085,-2.2062,-2.2063,-2.2031,-2.2024,-2.2025,-2.1998,-2.2001,-2.197,-2.1972,-2.1922,-2.1929,-2.1927,-2.1928,-2.1894,-2.1897,-2.1786,-2.1772,-2.1872,-2.1871,-2.187,0,-2.2111,-2.2084,-2.2076,-2.2062,-2.2056,-2.2032,-2.2018,-2.2028,-2.2013,-2.1997,-2.1976,-2.1951,-2.1931,-2.1887,-2.1884,-2.1861,-2.1866,-2.1829,-2.1863,-2.1861,-2.1865,-2.1866,-2.1863,-2.1822,-2.182,-2.182,-2.1819,0,-2.2018,-2.2023,-2.2003,-2.1985,-2.1968,-2.1954,-2.1941,-2.1928,-2.1937,-2.1919,-2.1893,-2.1878,-2.1848,-2.1823,-2.1801,-2.1794,-2.1807,-2.1809,-2.18,-2.1795,-2.1795,-2.1794,-2.1908,-2.1811,-2.1811,-2.1812,-2.1813,-2.1813,-2.195,-2.1927,-2.1919,-2.1897,-2.1889,-2.1877,-2.1856,-2.1855,-2.1834,-2.1812,-2.1819,-2.179,-2.1778,-2.1752,-2.1743,-2.1719,-2.1732,-2.1719,-2.1716,-2.1712,-2.1708,-2.1801,-2.1715,-2.1716,-2.1716,-2.1716,-2.1716,0,-2.1857,-2.1854,-2.1833,-2.1816,-2.1799,-2.1816,-2.1803,-2.1787,-2.1761,-2.1751,-2.1732,-2.1703,-2.1679,-2.1676,-2.1653,-2.1635,-2.164,-2.1628,-2.1629,-2.1627,-2.1697,-2.1707,-2.1624,-2.1624,-2.1624,-2.1624,-2.1624,-2.1624,-2.1806,-2.1769,-2.1774,-2.1733,-2.173,-2.1702,-2.1694,-2.1683,-2.1675,-2.1642,-2.1623,-2.1622,-2.1614,-2.1592,-2.1571,-2.157,-2.1561,-2.1546,-2.1548,-2.1613,-2.1622,-2.1631,-2.164,-2.1544,-2.1544,-2.1479,-2.1479,-2.1478]}]]